Date String (YYYY-MM-DD hh:mm:ss) UTC,Instrument flags,Ambient pressure (hPa),Sample flow (lpm),Bypass flow (lpm),Sample temperature (°C),Ambient temperature (°C),ASC tube jacket temperature (°C),LED temperature (°C),Box temperature (°C),Sample RH (%),Span deviation,Mass concentration (μg/m³),Mass concentration (μg/m³),Mass concentration (μg/m³)
DateTimeUTC,F1_M11,P_M11,Q1_M11,Q2_M11,T1_M11,T2_M11,T3_M11,T4_M11,T5_M11,U1_M11,ZSPAN_M11,X0_M11,X2_M11,X1_M11
2022-09-15 21:00:00,,0825.4,5.01,0.00,30.1,29.1,00.0,38.6,32.0,24.7,0000.0,0007.74,0002.89,0002.32
2022-09-15 21:01:00,,0825.5,5.00,0.00,30.1,28.4,00.0,38.6,32.0,24.3,0000.0,0007.74,0002.88,0002.32
2022-09-15 21:02:00,,0825.4,5.00,0.00,30.0,27.1,00.0,38.6,31.9,24.2,0000.0,0007.62,0002.86,0002.31
2022-09-15 21:03:00,,0825.4,5.00,0.00,30.0,26.5,00.0,38.6,31.8,24.4,0000.0,0007.52,0002.85,0002.30
2022-09-15 21:04:00,,0825.4,5.00,0.00,29.9,26.6,00.0,38.6,31.6,24.5,0000.0,0008.11,0002.81,0002.28
2022-09-15 21:05:00,,0825.4,5.00,0.00,29.8,26.9,00.0,38.5,31.5,24.9,0000.0,0008.26,0002.75,0002.24
2022-09-15 21:06:00,,0825.3,4.99,0.00,29.8,27.3,00.0,38.5,31.5,24.8,0000.0,0007.87,0002.69,0002.21
2022-09-15 21:07:00,,0825.4,5.01,0.00,29.8,27.7,00.0,38.5,31.6,24.3,0000.0,0007.78,0002.65,0002.17
2022-09-15 21:08:00,,0825.4,5.01,0.00,29.8,27.9,00.0,38.5,31.6,24.1,0000.0,0008.08,0002.60,0002.11
2022-09-15 21:09:00,,0825.3,4.99,0.00,29.8,28.2,00.0,38.5,31.7,23.8,0000.0,0009.30,0002.57,0002.05
2022-09-15 21:10:00,,0825.4,5.01,0.00,29.8,28.3,00.0,38.5,31.7,23.4,0000.0,0009.28,0002.49,0002.00
2022-09-15 21:11:00,,0825.3,4.99,0.00,29.9,28.5,00.0,38.5,31.7,23.6,0000.0,0009.24,0002.46,0001.97
2022-09-15 21:12:00,,0825.3,5.00,0.00,29.9,28.6,00.0,38.5,31.8,23.8,0000.0,0009.13,0002.39,0001.93
2022-09-15 21:13:00,,0825.3,5.01,0.00,29.9,28.8,00.0,38.5,31.9,23.6,0000.0,0009.40,0002.37,0001.89
2022-09-15 21:14:00,,0825.3,5.00,0.00,30.0,28.9,00.0,38.6,31.9,23.7,0000.0,0009.56,0002.38,0001.87
2022-09-15 21:15:00,,0825.3,5.01,0.00,30.0,29.0,00.0,38.6,32.0,23.7,0000.0,0009.47,0002.43,0001.87
2022-09-15 21:16:00,,0825.3,5.00,0.00,30.1,29.1,00.0,38.6,32.0,23.6,0000.0,0010.18,0002.43,0001.87
2022-09-15 21:17:00,,0825.4,5.01,0.00,30.1,28.4,00.0,38.6,32.0,23.8,0000.0,0010.08,0002.42,0001.87
2022-09-15 21:18:00,,0825.4,5.00,0.00,30.1,27.1,00.0,38.6,31.9,23.5,0000.0,0009.98,0002.47,0001.90
2022-09-15 21:19:00,,0825.3,5.01,0.00,30.0,26.5,00.0,38.6,31.8,23.5,0000.0,0009.33,0002.50,0001.93
2022-09-15 21:20:00,,0825.3,5.00,0.00,29.9,26.6,00.0,38.6,31.6,23.6,0000.0,0007.56,0002.51,0001.97
2022-09-15 21:21:00,,0825.3,5.00,0.00,29.8,26.9,00.0,38.5,31.5,23.5,0000.0,0007.42,0002.56,0002.00
2022-09-15 21:22:00,,0825.4,5.00,0.00,29.8,27.3,00.0,38.5,31.5,23.8,0000.0,0007.48,0002.61,0002.03
2022-09-15 21:23:00,,0825.3,4.98,0.00,29.8,27.6,00.0,38.5,31.6,24.1,0000.0,0007.52,0002.66,0002.06
2022-09-15 21:24:00,,0825.3,5.00,0.00,29.8,27.9,00.0,38.5,31.6,23.6,0000.0,0007.21,0002.62,0002.06
2022-09-15 21:25:00,,0825.3,5.00,0.00,29.8,28.2,00.0,38.5,31.7,23.5,0000.0,0007.25,0002.56,0002.05
2022-09-15 21:26:00,,0825.3,4.99,0.00,29.8,28.4,00.0,38.5,31.7,23.7,0000.0,0006.92,0002.52,0002.04
2022-09-15 21:27:00,,0825.3,5.00,0.00,29.9,28.6,00.0,38.5,31.7,23.8,0000.0,0004.95,0002.56,0002.04
2022-09-15 21:28:00,,0825.3,5.00,0.00,29.9,28.7,00.0,38.5,31.8,23.9,0000.0,0005.10,0002.62,0002.04
2022-09-15 21:29:00,,0825.3,5.01,0.00,29.9,28.8,00.0,38.6,31.9,23.6,0000.0,0004.91,0002.61,0002.01
2022-09-15 21:30:00,,0825.3,5.00,0.00,30.0,28.9,00.0,38.6,31.9,23.8,0000.0,0004.85,0002.59,0001.99
2022-09-15 21:31:00,,0825.3,4.99,0.00,30.0,29.0,00.0,38.6,32.0,23.6,0000.0,0004.99,0002.59,0001.98
2022-09-15 21:32:00,,0825.3,5.00,0.00,30.0,29.1,00.0,38.6,32.0,23.4,0000.0,0005.80,0002.63,0001.96
2022-09-15 21:33:00,,0825.3,5.01,0.00,30.1,28.4,00.0,38.6,32.0,23.8,0000.0,0006.97,0002.65,0001.95
2022-09-15 21:34:00,,0825.3,5.00,0.00,30.0,27.3,00.0,38.6,31.9,23.7,0000.0,0007.37,0002.66,0001.94
2022-09-15 21:35:00,,0825.3,4.99,0.00,30.0,27.1,00.0,38.6,31.9,23.5,0000.0,0007.49,0002.71,0001.95
2022-09-15 21:36:00,,0825.3,5.00,0.00,30.0,27.3,00.0,38.6,31.7,23.7,0000.0,0007.38,0002.75,0001.95
2022-09-15 21:37:00,,0825.3,4.99,0.00,29.9,27.7,00.0,38.6,31.7,24.1,0000.0,0007.55,0002.79,0001.95
2022-09-15 21:38:00,,0825.3,5.01,0.00,29.9,28.0,00.0,38.6,31.8,24.1,0000.0,0007.69,0002.79,0001.95
2022-09-15 21:39:00,,0825.3,5.01,0.00,29.9,28.2,00.0,38.6,31.8,24.0,0000.0,0007.88,0002.85,0001.95
2022-09-15 21:40:00,,0825.3,4.99,0.00,30.0,28.4,00.0,38.6,31.8,24.3,0000.0,0008.31,0003.00,0001.97
2022-09-15 21:41:00,,0825.2,5.00,0.00,30.0,28.6,00.0,38.6,31.9,23.8,0000.0,0008.39,0003.02,0001.99
2022-09-15 21:42:00,,0825.2,4.99,0.00,30.0,28.8,00.0,38.6,31.9,23.6,0000.0,0008.32,0002.99,0001.99
2022-09-15 21:43:00,,0825.2,5.00,0.00,30.0,28.9,00.0,38.6,32.0,23.5,0000.0,0008.05,0002.99,0002.00
2022-09-15 21:44:00,,0825.2,5.01,0.00,30.1,29.0,00.0,38.7,32.0,23.9,0000.0,0007.52,0003.02,0002.00
2022-09-15 21:45:00,,0825.2,5.00,0.00,30.1,29.1,00.0,38.7,32.0,23.3,0000.0,0007.24,0003.01,0002.00
2022-09-15 21:46:00,,0825.2,5.00,0.00,30.1,28.1,00.0,38.7,32.0,23.4,0000.0,0007.25,0002.98,0002.02
2022-09-15 21:47:00,,0825.2,4.99,0.00,30.1,26.7,00.0,38.7,31.9,23.1,0000.0,0007.73,0003.00,0002.04
2022-09-15 21:48:00,,0825.2,5.00,0.00,30.0,26.4,00.0,38.6,31.8,23.0,0000.0,0007.70,0002.94,0002.04
2022-09-15 21:49:00,,0825.2,5.00,0.00,29.9,26.7,00.0,38.6,31.6,23.0,0000.0,0007.66,0002.93,0002.05
2022-09-15 21:50:00,,0825.2,5.00,0.00,29.9,27.0,00.0,38.6,31.5,23.4,0000.0,0007.70,0002.87,0002.04
2022-09-15 21:51:00,,0825.2,4.99,0.00,29.8,27.3,00.0,38.5,31.6,23.3,0000.0,0007.57,0002.67,0002.02
2022-09-15 21:52:00,,0825.2,5.00,0.00,29.8,27.7,00.0,38.5,31.6,23.1,0000.0,0008.22,0002.61,0002.01
2022-09-15 21:53:00,,0825.2,5.01,0.00,29.8,28.0,00.0,38.5,31.7,22.9,0000.0,0009.14,0002.61,0002.00
2022-09-15 21:54:00,,0825.2,4.99,0.00,29.8,28.2,00.0,38.5,31.7,22.8,0000.0,0009.32,0002.57,0001.99
2022-09-15 21:55:00,,0825.2,5.01,0.00,29.9,28.4,00.0,38.5,31.8,23.0,0000.0,0009.06,0002.46,0001.97
2022-09-15 21:56:00,,0825.2,4.99,0.00,29.9,28.6,00.0,38.5,31.8,23.4,0000.0,0009.04,0002.46,0001.97
2022-09-15 21:57:00,,0825.2,5.01,0.00,29.9,28.7,00.0,38.6,31.8,23.2,0000.0,0009.15,0002.48,0001.94
2022-09-15 21:58:00,,0825.2,4.99,0.00,29.9,28.8,00.0,38.6,31.9,22.6,0000.0,0009.61,0002.42,0001.91
2022-09-15 21:59:00,,0825.2,4.99,0.00,30.0,28.9,00.0,38.6,31.9,22.5,0000.0,0009.56,0002.42,0001.90
